Date,TemperatureHighF,TemperatureAvgF,TemperatureLowF,DewpointHighF,DewpointAvgF,DewpointLowF,HumidityHigh,HumidityAvg,HumidityLow,PressureMaxIn,PressureMinIn,WindSpeedMaxMPH,WindSpeedAvgMPH,GustSpeedMaxMPH,PrecipitationSumIn
2013-3-1,42,34,28,29,27,24,91,76,53,0.00,40.00,11,6,19,0.00
2013-3-2,53,38,26,33,26,23,93,66,32,0.00,40.00,9,4,17,0.00
2013-3-3,50,37,29,37,29,25,97,76,37,0.00,40.00,14,4,24,0.00
2013-3-4,41,34,22,37,25,9,97,72,33,0.00,40.00,11,4,21,0.00
2013-3-5,46,28,14,19,13,8,77,56,28,0.00,40.00,7,2,10,0.00
2013-3-6,57,38,21,25,18,14,76,49,24,0.00,40.00,12,3,24,0.00
2013-3-7,60,44,32,29,23,15,78,46,18,0.00,40.00,10,3,18,0.00
2013-3-8,56,41,32,36,27,23,93,59,30,0.00,40.00,11,3,14,0.00
2013-3-9,37,34,29,36,33,26,96,96,93,0.00,40.00,9,-4,15,0.00
2013-3-10,41,28,17,30,22,15,96,79,44,0.00,40.00,7,2,11,0.00
2013-3-11,47,37,27,25,23,20,81,59,36,0.00,40.00,13,6,25,0.00
2013-3-12,51,42,35,31,28,25,79,59,36,0.00,40.00,11,4,20,0.00
2013-3-13,58,43,31,31,28,24,88,59,28,0.00,40.00,10,4,19,0.00
2013-3-14,62,44,31,32,27,22,83,58,21,0.00,40.00,8,2,15,0.00
2013-3-15,65,46,33,33,29,25,86,58,22,0.00,40.00,11,2,20,0.00
2013-3-16,55,45,38,41,34,32,82,65,44,0.00,40.00,11,2,19,0.00
2013-3-17,49,40,33,39,27,12,96,66,26,0.00,40.00,14,5,32,0.00
2013-3-18,46,39,30,19,15,12,54,39,28,0.00,40.00,12,4,30,0.00
2013-3-19,50,41,33,21,10,-3,54,30,11,0.00,40.00,9,3,17,0.00
2013-3-20,50,36,24,36,19,10,90,52,29,0.00,40.00,12,2,25,0.00
2013-3-21,41,36,30,38,31,22,96,82,46,0.00,40.00,12,-4,21,0.00
2013-3-22,44,34,25,24,18,10,82,56,24,0.00,40.00,15,4,24,0.00
2013-3-23,31,24,19,21,16,8,86,68,53,0.00,40.00,12,6,20,0.00
2013-3-24,33,21,16,17,8,1,76,57,34,0.00,40.00,12,5,20,0.00
2013-3-25,40,25,11,11,5,1,70,46,20,0.00,40.00,11,2,14,0.00
2013-3-26,55,36,22,27,17,10,64,47,25,0.00,40.00,12,2,20,0.00
2013-3-27,59,45,33,35,25,20,81,49,23,0.00,40.00,12,3,23,0.00
2013-3-28,63,46,32,31,26,24,72,49,24,0.00,40.00,9,2,15,0.00
2013-3-29,62,48,38,41,32,29,89,56,30,0.00,40.00,11,3,22,0.00
2013-3-30,62,47,36,41,31,-100,95,64,25,0.00,40.00,13,3,23,0.00
2013-3-31,65,48,32,33,27,20,86,51,19,0.00,40.00,12,3,20,0.00